Theta_e
332 333 334 332 335 334 335 335 335 334 335 335 335 335 334 332 330 330 332 332 333 332 331 327 323 325 327 331 333 333 328 333 334 333 331 329 327 327 326 325 322 319 317
331 331 331 329 325 334 335 335 335 335 335 335 335 335 335 334 333 333 333 332 333 337 334 331 324 324 326 330 333 330 325 333 333 332 331 329 328 326 326 324 319 311 307
329 331 332 330 328 326 329 335 334 334 335 335 335 335 335 334 334 334 334 334 335 337 335 332 326 323 326 332 333 329 326 330 332 330 330 329 328 326 322 316 307 304 304
329 328 330 330 329 324 322 327 334 334 335 336 335 334 335 334 334 334 334 333 334 336 335 333 328 325 329 333 333 327 323 325 330 330 329 328 326 322 312 306 304 304 304
327 328 327 327 331 328 325 324 328 331 333 334 335 336 335 335 334 334 334 333 333 334 336 334 328 328 333 334 330 323 323 325 331 330 328 327 322 314 305 305 305 304 308
325 327 327 326 329 329 327 323 323 330 332 332 332 335 336 335 335 335 335 334 333 334 337 336 332 333 334 331 321 318 322 327 329 328 327 326 313 306 312 314 314 312 319
316 325 327 326 326 330 328 327 324 324 329 329 332 333 335 335 335 335 335 334 333 334 337 334 332 331 331 318 318 319 325 328 328 327 323 315 307 319 322 318 316 318 320
313 318 323 326 325 326 329 329 327 324 323 322 329 331 332 331 332 333 333 335 334 335 337 334 330 332 320 318 322 326 329 329 327 323 316 306 316 321 320 317 317 317 318
309 312 316 324 325 325 327 326 326 327 327 327 325 323 323 323 322 322 330 334 334 334 335 333 332 326 319 325 328 328 328 327 322 313 306 308 312 319 318 317 317 317 317
308 307 308 312 319 325 325 326 325 324 325 324 324 322 321 322 321 321 323 330 335 335 334 330 330 320 326 327 326 325 321 315 310 306 306 311 321 319 316 316 316 316 315
308 307 307 307 310 317 324 326 325 323 322 322 321 321 321 320 320 321 323 328 324 326 326 326 322 322 323 319 316 312 310 307 305 306 309 318 319 317 316 315 315 314 314
306 306 306 307 307 309 317 324 325 324 322 322 321 322 322 321 321 320 321 323 322 322 320 320 316 317 314 311 309 306 304 305 307 307 314 319 318 316 316 315 315 314 314
303 303 304 305 307 307 309 315 323 324 323 323 322 321 321 321 321 321 321 322 322 320 319 307 311 309 308 306 304 303 304 306 308 310 317 317 317 314 316 315 314 313 313
302 303 304 304 305 306 307 310 318 323 323 323 322 321 321 321 321 321 321 322 321 322 311 305 304 304 303 303 303 304 306 307 309 313 314 317 318 315 317 314 313 313 313
302 303 304 304 304 306 307 308 312 322 323 323 322 320 320 321 320 320 320 321 321 322 317 305 304 303 302 303 304 305 306 308 309 313 314 320 317 315 315 316 314 312 312
301 302 303 304 304 305 308 311 315 322 323 322 322 320 320 321 321 320 320 320 321 322 320 312 303 303 302 304 305 307 308 309 309 312 312 317 318 318 317 315 315 314 312
301 302 303 303 304 304 308 316 317 319 321 322 322 320 320 320 320 320 320 321 320 321 319 315 303 303 303 305 306 308 308 309 308 309 315 315 317 315 313 311 311 312 312
301 302 303 303 304 305 312 315 317 318 321 321 323 320 319 319 319 319 320 319 319 319 316 307 303 303 304 305 306 307 308 307 307 307 308 314 314 313 310 309 308 309 310
301 303 304 304 304 307 310 314 315 316 319 321 320 320 319 318 318 319 318 317 316 317 316 314 306 303 303 304 304 305 306 305 305 304 305 306 309 309 307 306 303 302 308
300 302 304 304 305 307 311 312 314 314 316 319 320 320 319 320 320 319 318 318 317 316 316 315 310 304 303 302 302 302 303 303 303 303 303 303 304 304 304 303 302 299 300
298 301 304 304 305 306 308 311 312 313 315 318 316 319 319 318 317 319 319 318 318 318 317 314 309 305 303 302 302 301 301 301 301 301 300 300 300 300 300 300 299 299 298
294 297 302 304 305 306 307 308 313 314 315 314 315 316 317 318 316 315 318 316 316 316 316 314 310 306 303 302 301 301 301 300 300 300 300 300 299 299 300 300 299 299 299
292 292 294 299 304 305 306 308 309 312 313 313 313 315 314 314 313 313 312 313 313 313 312 312 310 308 305 302 302 303 305 304 303 301 300 300 300 300 299 299 299 299 299
292 292 291 291 294 300 305 308 308 308 308 308 310 311 312 311 311 310 310 311 310 309 309 309 308 306 305 304 303 304 307 306 306 301 300 300 300 300 300 300 300 299 299
292 291 291 291 291 291 292 296 303 305 304 305 305 307 308 308 308 309 308 308 310 307 306 305 305 305 306 305 306 305 305 304 304 304 302 300 300 300 300 300 300 300 299
292 291 291 290 290 290 290 290 290 293 298 299 302 303 304 305 306 306 306 307 307 309 305 303 303 304 303 303 303 304 303 302 302 301 301 300 300 300 300 300 299 299 299
Wind_Speed
24 17 11 18 11 12 11 10 9 11 11 10 10 8 9 9 10 9 9 9 9 10 9 9 9 9 9 9 8 8 9 11 9 6 5 5 5 4 3 2 2 2 3
22 21 22 21 30 6 6 11 9 10 11 11 11 10 9 10 10 10 10 10 9 10 11 9 10 10 9 9 8 8 9 10 8 3 3 5 5 5 3 3 4 5 4
25 23 22 21 21 33 25 10 11 10 10 10 11 11 10 10 11 11 10 10 11 12 10 9 10 11 10 9 9 8 8 7 5 3 3 6 8 9 6 5 6 4 2
21 21 21 21 19 17 35 30 9 10 9 7 9 11 11 12 12 11 10 11 12 14 11 11 12 13 11 10 9 8 8 6 3 2 3 7 9 9 7 6 4 2 2
20 23 22 21 21 17 15 32 29 14 7 5 6 9 12 12 13 12 12 12 13 15 12 12 14 14 12 11 9 9 7 6 5 3 4 8 10 8 6 4 3 1 3
23 22 21 22 20 17 18 23 33 16 12 10 9 7 8 11 13 14 15 15 15 15 15 14 15 14 12 11 11 10 8 6 6 5 6 8 8 6 3 6 6 7 11
25 22 20 18 20 20 22 18 14 24 21 18 13 14 9 9 12 13 17 18 18 18 19 19 16 12 12 12 13 11 9 8 6 5 6 8 4 5 9 9 8 9 11
23 23 20 17 16 16 14 19 18 20 23 25 20 11 6 10 11 8 15 21 21 22 24 20 15 14 14 13 13 11 9 8 7 6 7 4 5 8 6 8 9 10 10
20 19 20 19 18 17 15 13 11 13 14 18 20 28 36 34 32 42 21 22 28 28 28 21 18 14 15 15 13 11 10 9 7 6 5 3 4 7 4 9 9 8 8
21 21 21 19 16 16 16 12 13 12 11 13 16 16 22 34 34 30 29 24 40 31 25 23 19 16 15 15 13 10 9 8 7 6 4 5 9 5 5 8 9 6 8
22 24 24 22 19 16 15 13 13 12 12 12 12 11 11 12 29 17 22 1 12 18 20 18 17 16 17 15 13 11 9 7 6 5 3 11 8 4 7 6 7 5 7
30 29 25 22 21 19 16 13 11 12 11 11 13 13 11 10 3 7 10 16 8 12 17 16 17 17 15 14 12 11 9 7 6 5 10 9 7 4 7 6 5 5 7
34 32 27 21 19 18 18 16 12 10 10 11 11 12 12 9 4 2 4 11 20 18 20 15 15 16 15 14 12 10 9 7 7 8 13 10 7 4 7 6 4 3 6
32 30 27 23 19 18 17 16 14 10 10 11 10 11 10 6 5 6 11 11 10 15 14 11 13 15 15 13 11 10 10 8 8 9 10 12 7 6 8 3 3 4 3
31 30 27 24 21 18 17 15 14 11 10 9 8 8 8 3 4 6 7 12 7 15 20 11 10 13 14 13 12 11 10 10 10 11 12 14 8 4 5 6 4 2 2
30 28 27 24 21 18 16 13 13 13 14 10 7 6 6 4 8 6 5 7 11 13 18 15 9 12 13 12 12 11 10 11 12 12 13 13 17 19 18 10 10 4 2
30 28 27 25 22 18 16 11 10 13 16 13 10 6 5 2 4 7 5 4 9 11 12 16 14 11 12 12 12 11 10 10 11 12 15 16 16 14 9 7 7 9 2
29 28 26 25 22 17 15 12 13 11 13 13 13 9 5 1 4 3 7 6 6 6 10 17 18 13 11 11 11 11 11 11 12 13 15 17 16 14 10 12 10 8 8
28 28 26 25 22 16 14 12 13 13 10 12 12 12 10 6 6 5 5 6 8 9 10 12 18 16 11 11 11 11 11 11 11 12 13 16 20 18 14 10 8 7 7
26 25 24 23 23 19 14 11 11 12 10 11 11 13 16 14 13 11 9 9 8 9 9 15 16 18 13 11 11 11 11 10 10 11 11 12 14 14 13 11 9 9 9
24 25 25 24 23 22 17 13 11 12 10 9 14 14 15 19 19 16 18 16 15 16 12 14 15 17 18 13 11 10 8 8 7 8 9 9 10 10 9 9 9 9 8
24 24 24 23 20 20 17 13 13 9 10 12 14 9 12 15 17 19 21 20 19 17 19 14 16 19 19 16 12 8 5 6 7 8 9 9 9 8 8 8 8 8 8
23 26 26 24 20 18 18 14 12 11 10 12 12 13 10 12 10 17 17 16 15 18 19 17 17 17 21 22 17 7 5 3 4 9 10 10 9 8 7 7 7 7 7
19 20 23 25 24 20 17 16 14 12 12 10 10 10 11 10 9 10 13 13 11 14 14 15 15 16 16 18 17 16 9 4 1 5 9 9 9 8 8 9 9 8 9
17 19 20 21 23 25 25 24 20 20 17 13 12 8 6 7 8 8 9 8 11 12 12 16 17 17 16 15 15 14 12 8 8 9 6 8 9 8 8 8 8 9 11
14 17 18 20 22 24 26 26 27 25 20 21 19 18 15 11 8 7 8 7 5 12 13 16 18 17 15 14 12 13 11 13 15 14 11 8 7 7 9 9 9 10 11
Wind_Direction
347 341 309 303 302 288 262 246 231 218 207 201 200 201 203 204 197 196 204 200 200 202 188 173 166 163 163 156 151 143 131 132 142 120 71 49 59 65 60 44 22 335 328
347 331 332 338 300 212 308 280 247 233 220 216 213 207 215 214 209 205 203 203 196 196 182 183 175 174 171 170 170 160 151 152 154 124 41 17 7 360 335 332 330 320 308
354 343 345 352 337 320 346 308 279 253 226 221 230 224 217 217 216 213 208 208 199 194 199 195 183 183 179 183 181 168 163 163 171 125 349 343 345 341 320 324 324 327 343
346 349 350 340 334 329 329 327 290 276 267 244 236 242 236 228 226 222 222 219 211 202 218 204 185 185 185 189 191 183 180 173 159 130 316 323 331 334 314 321 315 316 344
346 348 349 349 352 15 353 312 340 277 282 252 278 261 253 246 242 239 237 230 224 216 211 203 188 187 185 189 199 192 190 187 157 232 297 315 322 317 315 307 318 274 114
349 350 352 350 351 341 339 315 297 324 317 290 280 283 261 265 262 251 246 237 230 222 205 195 181 182 187 196 202 200 198 197 200 256 292 308 313 313 351 84 91 75 90
352 348 351 357 346 351 356 339 323 318 336 301 274 259 249 251 241 246 265 253 233 222 203 186 190 198 199 199 199 203 202 215 232 262 291 300 300 91 100 96 89 101 97
348 349 346 350 352 357 5 353 347 334 319 316 313 330 338 7 357 301 298 251 238 219 202 194 186 188 199 198 202 202 212 231 242 270 293 281 120 110 121 107 98 107 106
350 347 351 355 346 348 4 11 11 346 341 323 320 306 310 322 344 347 297 258 225 219 204 190 182 186 196 201 203 204 212 229 250 272 267 222 122 131 127 104 105 109 108
357 356 355 354 346 344 351 357 354 354 348 344 328 315 342 314 317 336 333 306 195 206 193 182 188 188 195 204 212 212 223 237 257 256 229 112 126 151 130 120 117 114 105
343 351 350 347 344 337 333 337 339 341 342 349 351 352 313 333 331 344 337 244 70 137 178 173 172 187 203 206 211 220 227 235 238 221 133 125 159 179 112 119 126 112 100
340 342 341 338 337 332 328 326 322 328 329 338 332 318 311 308 4 7 4 286 313 164 154 158 176 190 200 211 213 217 225 220 206 173 132 139 164 137 131 126 113 110 97
339 335 338 332 328 327 322 319 315 318 322 333 330 328 326 305 276 13 256 238 265 272 156 162 183 193 201 208 208 209 211 200 185 159 153 153 167 80 143 120 129 87 96
339 338 337 332 322 323 321 313 312 311 316 325 331 334 329 312 294 293 283 274 235 248 151 150 187 195 198 200 199 201 200 193 175 162 143 143 154 55 140 135 125 110 93
343 342 341 338 327 319 320 314 307 304 300 303 314 325 333 337 289 318 312 253 221 200 170 164 191 201 199 197 192 192 190 187 178 166 150 157 138 123 157 107 105 102 75
348 346 344 342 334 325 325 322 318 307 298 290 287 302 309 280 279 323 291 237 208 213 194 176 190 203 196 193 188 187 188 185 178 178 161 168 161 146 150 150 111 76 84
346 346 346 346 341 331 328 330 330 318 301 291 282 265 266 209 253 307 235 194 194 185 203 183 175 197 193 184 188 187 188 187 189 189 163 176 177 186 197 191 164 119 89
345 347 347 345 343 334 330 332 334 315 295 304 289 244 227 270 259 218 189 205 195 203 202 185 180 181 189 192 192 191 194 193 196 201 194 194 207 215 221 226 204 151 117
350 348 349 347 347 342 335 337 333 324 302 282 291 263 246 219 224 201 207 196 170 169 185 195 191 191 185 193 196 197 202 200 201 205 209 213 222 231 239 258 242 227 158
353 352 350 353 353 359 353 328 315 318 304 293 262 263 252 245 245 237 232 225 179 180 193 194 193 184 185 200 201 200 201 205 205 212 214 220 229 236 242 247 242 236 221
358 357 359 359 3 359 354 344 317 315 308 314 282 275 266 261 247 249 247 235 221 215 208 203 193 188 180 185 191 193 199 209 203 209 213 213 224 226 229 230 235 237 233
9 11 7 6 5 2 353 333 339 340 327 323 312 292 278 275 265 255 250 239 235 225 217 213 207 195 184 178 189 185 193 218 231 217 218 214 221 219 221 227 234 241 246
16 20 19 14 7 5 355 343 319 306 313 304 310 311 315 293 282 290 261 251 243 233 218 216 209 214 202 191 183 178 171 161 262 240 232 227 224 228 228 231 235 244 254
17 19 22 24 26 21 10 13 15 16 8 357 344 335 326 324 304 267 251 252 236 227 223 214 209 209 213 213 210 209 213 213 312 276 236 233 231 231 240 245 248 252 258
6 12 18 23 29 32 32 30 28 31 31 17 12 1 359 349 332 319 304 269 253 232 223 220 214 210 213 213 211 205 231 227 238 259 275 235 235 240 246 251 255 260 261
355 4 12 19 28 31 31 31 32 31 24 5 7 20 16 10 0 348 330 326 286 263 234 223 222 225 228 221 224 221 227 238 240 247 259 257 235 247 255 258 262 262 262